GREENCUBE (53106 NORAD) Tracking and Keplerian Element Data

This shows tracking and keplerian element data for the satellite.

Feedback or suggestion? Click here.




ElementValue
Catalog53106
NameGREENCUBE
Epoch Orbit467
Epoch Day267.36993488
Epoch Year2022
RAAN52.0631
Inclination70.1616
Eccentricity0.0008654
Argument of Perigee241.1549
Mean Anonmoly118.8242
Mean Motion6.42557865
Decay Rate-3E-08
L11 53106U 22080B 22267.36993488 -.00000003 00000+0 00000+0 0 9998
L22 53106 70.1616 52.0631 0008654 241.1549 118.8242 6.42557865 4675

Live tracking and technical data element details for GREENCUBE (NORAD 53106). GREENCUBE can be tracked NOW for your location showing map with azimuth and elevation plus other details from your city location.

Track the satellite on the map from your city or location and see movement details for azimuth, elevation, latitude, longitude, range, height, and movement on the map or in text.







IsCatalogInMostPopularTable: catalog: 53106, numindb: 14
Update: records affected: 1



GetName: 53106 GREENCUBE

Hit Count: updated at: Wed, 28 Sep 2022 22:49:34 GMT